Location: Vihti�l�
(61.3833°N, 23.0667°E)
Time: 04:20:40
(UTC+00:00)

DMSP B5D1-3 - Pass Details

Date: 29 November 2020
Orbit: 766 x 781 km, 98.5° (Epoch: 19 January)

Event Time Altitude Azimuth Distance (km) Brightness Sun altitude
Rises 04:10:04 0° 169° (S) 3,257 8.0 -19.5°
Reaches altitude 10° 04:12:23 10° 173° (S) 2,335 7.2 -19.2°
Maximum altitude 04:17:31 66° 255° (WSW) 856 4.5 -18.6°
Enters shadow 04:22:02 14° 337° (NNW) 2,096 6.4 -18.1°
